Weather Roundup
Issued by NWS Chicago, IL

Home | Current Version | Previous Version | Graphics & Text | Print | Product List | Glossary On
Versions: 1 2 3 4 5 6 7 8 9 10 11 12 13 14 15 16 17 18 19 20 21 22 23 24 25 26 27 28 29 30 31 32 33 34 35 36 37 38 39 40 41 42 43 44 45 46 47 48 49 50
000
NZUS59 KLOT 020200
HRRLOT

CHICAGO AREA WEATHER ROUNDUP
NATIONAL WEATHER SERVICE CHICAGO/ROMEOVILLE IL
900 PM CDT FRI AUG 01 2014

NOTE: "FAIR" INDICATES FEW OR NO CLOUDS BELOW 12,000 FEET WITH NO
SIGNIFICANT WEATHER AND/OR OBSTRUCTIONS TO VISIBILITY.

* THESE STATIONS ARE NOT UNDER NWS QUALITY CONTROL. THEY ALSO MAY NOT
  REPORT WEATHER SUCH AS PRECIPITATION OR FOG.

ILZ005-006-012>014-019>023-020300-
NORTHEAST ILLINOIS

CITY           SKY/WX    TMP DP  RH WIND       PRES   REMARKS
OHARE          MOCLDY    70  58  65 NW7       30.10R
MIDWAY         CLOUDY    70  60  70 NW3       30.09R
AURORA         CLOUDY    66  61  84 CALM      30.11R
WAUKEGAN       CLOUDY    65  57  75 NW8       30.13R THUNDER
DUPAGE AIRPORT MOCLDY    68  60  75 CALM      30.11R
WHEELING       MOCLDY    73  57  57 NW13      30.13R
NORTHERLY IS     N/A     72  57  59 W8          N/A
$$

WIZ051-052-058>065-066-070>072-020300-
SOUTHEAST WISCONSIN

CITY           SKY/WX    TMP DP  RH WIND       PRES   REMARKS
MILWAUKEE      CLOUDY    65  57  75 SW12      30.10S
KENOSHA*       TSTM      64  56  75 N16G22    30.13F
RACINE*        LGT RAIN  64  59  83 S8        30.12F
$$

INZ001>003-010>013-019-020-020300-
NORTHWEST INDIANA

CITY           SKY/WX    TMP DP  RH WIND       PRES   REMARKS
GARY*          MOCLDY    66  59  77 SW6       30.10R
MICHIGAN CITY* NOT AVBL
RENSSELAER*    NOT AVBL
VALPARAISO     CLOUDY    61  59  93 CALM      30.12R
$$

LMZ740>746-020300-
SOUTHERN LAKE MICHIGAN

STATION/POSITION TIME  SKY/WX   TEMP WIND        PRES    VSBY
                                AIR  DIR/SP/G
                 (UTC)          (F)  (DEG/KT/KT) (MB)    (MI)
HARRISON CRIB    0100            74  240/  8/ 10   N/A
BURNHAM HARBOR   0200            71  280/  6/  8   N/A
CALUMET HARBOR   0100            71  230/  5/  6 1017.5R
BURNS HARBOR     0100            72  170/  3/  7   N/A
MICHIGAN CITY    0100            72  160/  4/  6   N/A
$$

ABBREVIATIONS USED IN REMARKS
   TC - TEMPERATURE IN CELSIUS
  WCI - WIND CHILL INDEX
   HX - HEAT INDEX
  VSB - VISIBILITY
$$


USA.gov is the U.S. government's official web portal to all federal, state and local government web resources and services.